Location: Splawn
(30.9202°N, 96.9858°W)
Time: 00:12:25
(UTC+00:00)

Transit 2A Rocket - Pass Details

Date: 03 March 2020
Orbit: 588 x 915 km, 66.7° (Epoch: 06 April)

Event Time Altitude Azimuth Distance (km) Brightness Sun altitude
Rises 13:03:37 0° 313° (NW) 3,310 7.8 1.7°
Reaches altitude 10° 13:06:44 10° 295° (WNW) 2,435 7.0 2.4°
Maximum altitude 13:10:25 18° 254° (WSW) 1,986 6.7 3.2°
Drops below altitude 10° 13:14:14 10° 213° (SSW) 2,538 7.5 4.0°
Sets 13:17:35 0° 195° (SSW) 3,506 8.4 4.7°
